Location: Fort Wayne
(41.1310°N, 85.1290°W)
Time: 10:25:14
(UTC-04:00)

Oscar 19 - Visible Passes

Search period start: 27 March 2017 00:00
Search period end: 06 April 2017 00:00
Orbit: 773 x 791 km, 98.6° (Epoch: 25 March)

Date Brightness Start Highest point End Pass type
(mag) Time Alt. Az. Time Alt. Az. Time Alt. Az.
27 Mar 12.9 03:49:00 10° N 03:50:18 18° N 03:50:18 18° N visible
28 Mar 13.1 03:17:02 10° NNE 03:18:12 17° NNE 03:18:12 17° NNE visible
28 Mar 13.0 04:58:31 10° NNW 04:58:46 11° NW 04:58:46 11° NW visible
29 Mar 13.4 02:45:27 10° NNE 02:46:06 13° NNE 02:46:06 13° NNE visible
29 Mar 12.8 04:25:19 10° NNW 04:26:40 16° NNW 04:26:40 16° NNW visible
30 Mar 12.7 03:52:54 10° N 03:54:34 20° N 03:54:34 20° N visible
31 Mar 12.9 03:20:54 10° NNE 03:22:29 20° NNE 03:22:29 20° NNE visible
31 Mar 13.0 05:02:43 10° NW 05:03:03 11° NW 05:03:03 11° NW visible
01 Apr 13.2 02:49:16 10° NNE 02:50:23 16° NNE 02:50:23 16° NNE visible
01 Apr 12.7 04:29:17 10° NNW 04:30:57 17° NNW 04:30:57 17° NNW visible
02 Apr 13.5 02:18:07 10° NE 02:18:17 11° NE 02:18:17 11° NE visible
02 Apr 12.5 03:56:49 10° N 03:58:51 23° NNW 03:58:51 23° NNW visible
03 Apr 12.7 03:24:47 10° NNE 03:26:45 24° N 03:26:45 24° N visible
03 Apr 13.0 05:07:01 10° NW 05:07:19 10° NW 05:07:19 10° NW visible
04 Apr 13.0 02:53:05 10° NNE 02:54:39 20° NNE 02:54:39 20° NNE visible
04 Apr 12.6 04:33:16 10° NNW 04:35:13 17° NW 04:35:13 17° NW visible
05 Apr 13.4 02:21:53 10° NE 02:22:34 13° NE 02:22:34 13° NE visible
05 Apr 12.4 04:00:45 10° N 04:03:07 25° NNW 04:03:07 25° NNW visible
